User: anonymous   Login
Location: Caltech
(34.1382°N, 118.1253°W)
Time: 05:23:49
(UTC-07:00)
Language:

Cosmos 2251 Rocket - Orbit

View from above orbital plane
View from above orbital plane
View from above satellite
View from above satellite

Ground track
Ground track

The orbit data is extracted from the following two-line orbital elements,

1 22676U 93036B   15245.60069206 +.00000086 +00000-0 +40071-4 0  9990
2 22676 074.0427 297.1112 0017808 125.8537 234.4272 14.33810272161381
Epoch (UTC): 02 September 2015 14:24:59
Eccentricity: 0.0017808
inclination: 74.0427°
perigee height: 766 km
apogee height: 792 km
right ascension of ascending node: 297.1112°
argument of perigee: 125.8537°
revolutions per day: 14.33810272
mean anomaly at epoch: 234.4272°
orbit number at epoch: 16138

The dashed part of the orbit path shows where the satellite is in the earth's shadow,  

DLR